Погода в Валенсии

Испания     39°27′50″N   0°22′32″E
темп.,
°C
ветер,
м/с
пор.,
м/с
влажн.,
%
обл.,
%
осадки,
мм/ч
давл.,
гПа
погр.,
м
16 мая, вс
вс1623:00+23з3337100 0.0 101232
02:00+21зюз334462 0.0 101221
05:00+20з48495 0.0 1011106
08:00+20з48565 0.0 1011168
11:00+28з79342 0.0 10121081
14:00+33з79217 0.0 10102238
17:00+34з9101949 0.0 10082636
20:00+30сз592832 0.0 1009359
17 мая, пн
пн1723:00+25зсз223829 0.0 101118
02:00+21в25565 0.0 101399
05:00+17в388934 0.0 1016466
08:00+18всв347796 0.1 1018506
11:00+19всв336870 0.0 1019740
14:00+20вюв546491 0.0 1019900
17:00+21вюв6460100 0.0 1018967
20:00+18вюв4471100 0.0 1018542
18 мая, вт
вт1823:00+16юв1184100 0.0 102013
02:00+16ссз1186100 0.0 102017
05:00+15с1188100 0.0 101917
08:00+16ссз12825 0.0 1020120
11:00+20всв11635 0.0 1020827
14:00+25вюв744992 0.0 1018941
17:00+23вюв655890 0.0 1017611
20:00+20всв56703 0.0 1018493
19 мая, ср
ср1923:00+17св13876 0.0 102178
02:00+16ссз11917 0.0 102224
05:00+16с229163 0.1 102367
08:00+17с128391 0.1 1024163
11:00+19в4373100 0.1 1025791
14:00+20вюв446679 0.3 1024851
17:00+22вюв5356100 0.0 10231133
20:00+19вюв336498 0.0 1023474
20 мая, чт
чт2023:00+16юв11855 0.0 102511
02:00+15сз118663 0.0 102511
05:00+14зсз11854 0.0 102411
08:00+16ссз007693 0.0 102461
11:00+21вюв225688 0.0 1024813
14:00+24вюв634792 0.0 10231167
17:00+23вюв655227 0.0 1021780
20:00+19в55635 0.0 1021549